IZ1DME-3 Weather Reports


time (UTC)temp
F
wind
direction
speed
knots
gust
knots
rain 1hr
in
rain 24hr
in
rain mn
in
humidity
%
barometer
mb
20260510055954 53 0.0 0.0 0.00 0.00 0.00 86 1017.1
20260510053454 52 0.0 0.0 0.00 0.00 0.00 88 1017.0
20260510044454 52 0.0 0.0 0.00 0.00 0.00 90 1017.0
20260510041954 52 0.0 0.0 0.00 0.00 0.00 90 1017.0
20260510035453 52 0.0 0.0 0.00 0.00 0.00 88 1017.2
20260510032954 52 0.0 0.0 0.00 0.00 0.00 86 1017.2
20260510021454 54 0.0 0.0 0.00 0.00 0.00 78 1017.4
20260510014954 55 0.0 0.0 0.00 0.00 0.00 76 1017.2
20260510005955 58 0.0 0.0 0.00 0.00 0.00 74 1017.0
20260510003454 58 0.0 0.0 0.00 0.00 0.00 75 1017.1
20260510000954 59 0.0 0.0 0.00 0.00 0.00 74 1016.8
20260509234454 59 0.0 0.0 0.00 0.00 0.00 73 1017.0
20260509232004 59 0.0 0.0 0.00 0.00 0.00 71 1017.1
20260509225454 59 0.0 0.0 0.00 0.00 0.00 72 1017.2
20260509222954 59 0.0 0.0 0.00 0.00 0.00 71 1017.3
20260509220454 60 0.0 0.0 0.00 0.00 0.00 70 1017.1
20260509213954 60 0.0 0.0 0.00 0.00 0.00 67 1017.0
20260509211454 61 0.0 0.0 0.00 0.00 0.00 64 1017.1
20260509204954 62 0.0 0.0 0.00 0.00 0.00 65 1017.2
20260509202454 62 0.0 0.0 0.00 0.00 0.00 60 1017.1
20260509195955 63 0.0 0.0 0.00 0.00 0.00 60 1017.0
20260509193454 63 0.0 0.0 0.00 0.00 0.00 58 1016.8
20260509190954 64 0.0 0.0 0.00 0.00 0.00 53 1016.4
20260509184455 65 0.0 0.0 0.00 0.00 0.00 50 1016.0
20260509172954 67 0.0 0.0 0.00 0.00 0.00 52 1015.6
20260509170454 68 0.0 0.0 0.00 0.00 0.00 51 1015.4